| time (UTC) | temp F | wind direction | speed knots | gust knots | rain 1hr in | rain 24hr in | rain mn in | humidity % | barometer mb |
| 20260504202557 | 53 | 39 | 1.7 | 3.5 | 0.00 | 0.00 | 0.00 | 67 | 1020.2 |
| 20260504202057 | 54 | 24 | 2.6 | 4.3 | 0.00 | 0.00 | 0.00 | 65 | 1020.3 |
| 20260504201557 | 54 | 20 | 1.7 | 4.3 | 0.00 | 0.00 | 0.00 | 65 | 1020.4 |
| 20260504201056 | 56 | 355 | 0.0 | 1.7 | 0.00 | 0.00 | 0.00 | 67 | 1020.4 |
| 20260504200556 | 56 | 351 | 0.9 | 3.5 | 0.00 | 0.00 | 0.00 | 65 | 1020.4 |
| 20260504200056 | 56 | 355 | 1.7 | 3.5 | 0.00 | 0.00 | 0.00 | 64 | 1020.5 |
| 20260504195555 | 57 | 285 | 0.0 | 2.6 | 0.00 | 0.00 | 0.00 | 65 | 1020.5 |
| 20260504195055 | 58 | 267 | 0.0 | 2.6 | 0.00 | 0.00 | 0.00 | 64 | 1020.4 |
| 20260504194559 | 58 | 268 | 0.9 | 2.6 | 0.00 | 0.00 | 0.00 | 64 | 1020.4 |
| 20260504194055 | 58 | 267 | 0.0 | 2.6 | 0.00 | 0.00 | 0.00 | 64 | 1020.4 |
| 20260504193555 | 58 | 267 | 0.9 | 2.6 | 0.00 | 0.00 | 0.00 | 64 | 1020.4 |
| 20260504193111 | 58 | 266 | 0.0 | 3.5 | 0.00 | 0.00 | 0.00 | 64 | 1020.4 |
| 20260504192556 | 58 | 262 | 0.9 | 4.3 | 0.00 | 0.00 | 0.00 | 63 | 1020.3 |
| 20260504192059 | 58 | 255 | 2.6 | 4.3 | 0.00 | 0.00 | 0.00 | 63 | 1020.2 |
| 20260504191555 | 58 | 252 | 1.7 | 3.5 | 0.00 | 0.00 | 0.00 | 63 | 1020.1 |
| 20260504191054 | 58 | 219 | 1.7 | 2.6 | 0.00 | 0.00 | 0.00 | 63 | 1020.2 |
| 20260504190554 | 58 | 231 | 0.0 | 2.6 | 0.00 | 0.00 | 0.00 | 62 | 1020.2 |
| 20260504190106 | 59 | 232 | 0.9 | 7.8 | 0.00 | 0.00 | 0.00 | 62 | 1020.1 |
| 20260504185553 | 59 | 250 | 2.6 | 8.7 | 0.00 | 0.00 | 0.00 | 62 | 1020.0 |
| 20260504185053 | 59 | 255 | 4.3 | 7.0 | 0.00 | 0.00 | 0.00 | 62 | 1019.9 |
| 20260504184554 | 59 | 234 | 3.5 | 7.0 | 0.00 | 0.00 | 0.00 | 62 | 1019.9 |
| 20260504184057 | 59 | 210 | 3.5 | 6.1 | 0.00 | 0.00 | 0.00 | 61 | 1019.9 |
| 20260504183554 | 59 | 207 | 0.9 | 3.5 | 0.00 | 0.00 | 0.00 | 61 | 1020.0 |
| 20260504183100 | 59 | 239 | 1.7 | 4.3 | 0.00 | 0.00 | 0.00 | 61 | 1020.0 |
| 20260504182553 | 59 | 240 | 2.6 | 5.2 | 0.00 | 0.00 | 0.00 | 61 | 1019.9 |
| 20260504182053 | 59 | 216 | 2.6 | 5.2 | 0.00 | 0.00 | 0.00 | 61 | 1019.9 |
| 20260504181553 | 59 | 228 | 2.6 | 5.2 | 0.00 | 0.00 | 0.00 | 61 | 1019.9 |
| 20260504181155 | 59 | 250 | 2.6 | 6.1 | 0.00 | 0.00 | 0.00 | 61 | 1019.9 |
| 20260504180552 | 59 | 201 | 2.6 | 5.2 | 0.00 | 0.00 | 0.00 | 61 | 1019.7 |
| 20260504180130 | 59 | 265 | 3.5 | 5.2 | 0.00 | 0.00 | 0.00 | 60 | 1019.6 |
| 20260504175551 | 60 | 190 | 0.9 | 4.3 | 0.00 | 0.00 | 0.00 | 60 | 1019.6 |
| 20260504175051 | 60 | 246 | 3.5 | 4.3 | 0.00 | 0.00 | 0.00 | 60 | 1019.5 |
| 20260504174551 | 60 | 248 | 2.6 | 6.1 | 0.00 | 0.00 | 0.00 | 60 | 1019.6 |
| 20260504174050 | 60 | 242 | 3.5 | 6.1 | 0.00 | 0.00 | 0.00 | 59 | 1019.6 |
| 20260504173551 | 60 | 266 | 2.6 | 6.1 | 0.00 | 0.00 | 0.00 | 59 | 1019.6 |
| 20260504173050 | 60 | 264 | 2.6 | 7.0 | 0.00 | 0.00 | 0.00 | 58 | 1019.5 |
| 20260504172550 | 61 | 278 | 3.5 | 7.0 | 0.00 | 0.00 | 0.00 | 58 | 1019.5 |
| 20260504172051 | 61 | 269 | 1.7 | 6.1 | 0.00 | 0.00 | 0.00 | 57 | 1019.3 |
| 20260504171551 | 61 | 271 | 2.6 | 7.8 | 0.00 | 0.00 | 0.00 | 55 | 1019.4 |
| 20260504171049 | 62 | 261 | 4.3 | 7.8 | 0.00 | 0.00 | 0.00 | 53 | 1019.4 |
| 20260504170548 | 64 | 261 | 3.5 | 8.7 | 0.00 | 0.00 | 0.00 | 39 | 1019.4 |
| 20260504151042 | 66 | 350 | 10.4 | 14.8 | 0.00 | 0.00 | 0.00 | 31 | 1019.5 |
| 20260504150545 | 66 | 348 | 7.0 | 12.2 | 0.00 | 0.00 | 0.00 | 30 | 1019.4 |
| 20260504141039 | 66 | 13 | 10.4 | 20.9 | 0.00 | 0.00 | 0.00 | 27 | 1019.4 |
| 20260504140538 | 67 | 11 | 10.4 | 17.4 | 0.00 | 0.00 | 0.00 | 27 | 1019.5 |
| 20260504130527 | 67 | 329 | 7.8 | 13.0 | 0.00 | 0.00 | 0.00 | 33 | 1019.6 |
| 20260504110507 | 64 | 42 | 7.0 | 13.0 | 0.00 | 0.00 | 0.00 | 37 | 1021.0 |
| 20260504100557 | 63 | 12 | 10.4 | 15.6 | 0.00 | 0.00 | 0.00 | 39 | 1021.4 |
| 20260504100116 | 63 | 346 | 7.8 | 13.9 | 0.00 | 0.00 | 0.00 | 40 | 1021.4 |
| 20260504081526 | 60 | 12 | 5.2 | 12.2 | 0.00 | 0.00 | 0.00 | 44 | 1021.4 |
| 20260504081027 | 60 | 344 | 6.1 | 11.3 | 0.00 | 0.00 | 0.00 | 45 | 1021.4 |
| 20260504080525 | 60 | 335 | 6.1 | 11.3 | 0.00 | 0.00 | 0.00 | 44 | 1021.3 |
| 20260504060106 | 55 | 227 | 0.9 | 2.6 | 0.00 | 0.00 | 0.00 | 60 | 1021.0 |
| 20260504050543 | 51 | 294 | 0.0 | 1.7 | 0.00 | 0.02 | 0.00 | 71 | 1020.9 |
| 20260504045539 | 50 | 330 | 0.9 | 2.6 | 0.00 | 0.04 | 0.00 | 71 | 1020.9 |
| 20260504045038 | 49 | 251 | 0.0 | 2.6 | 0.00 | 0.04 | 0.00 | 72 | 1020.9 |
| 20260504044538 | 49 | 350 | 0.0 | 3.5 | 0.00 | 0.04 | 0.00 | 72 | 1020.8 |
| 20260504044038 | 49 | 355 | 0.9 | 3.5 | 0.00 | 0.04 | 0.00 | 72 | 1020.7 |
| 20260504043534 | 49 | 355 | 0.0 | 3.5 | 0.00 | 0.04 | 0.00 | 72 | 1020.6 |
| 20260504043041 | 49 | 76 | 0.9 | 3.5 | 0.00 | 0.04 | 0.00 | 73 | 1020.7 |
| 20260504042531 | 48 | 59 | 2.6 | 3.5 | 0.00 | 0.04 | 0.00 | 73 | 1020.7 |
| 20260504042032 | 47 | 41 | 2.6 | 3.5 | 0.00 | 0.04 | 0.00 | 74 | 1020.7 |
| 20260504041530 | 47 | 38 | 1.7 | 4.3 | 0.00 | 0.04 | 0.00 | 75 | 1020.7 |
| 20260504041028 | 47 | 15 | 3.5 | 4.3 | 0.00 | 0.04 | 0.00 | 73 | 1020.7 |
| 20260504040527 | 48 | 300 | 0.0 | 3.5 | 0.00 | 0.04 | 0.00 | 73 | 1020.6 |
| 20260504040026 | 48 | 311 | 1.7 | 3.5 | 0.00 | 0.04 | 0.00 | 73 | 1020.6 |
| 20260504035525 | 47 | 14 | 0.0 | 3.5 | 0.00 | 0.04 | 0.00 | 74 | 1020.6 |
| 20260504035027 | 47 | 360 | 0.9 | 3.5 | 0.00 | 0.04 | 0.00 | 75 | 1020.5 |
| 20260504034522 | 47 | 32 | 1.7 | 3.5 | 0.00 | 0.04 | 0.00 | 75 | 1020.5 |
| 20260504034022 | 47 | 338 | 0.9 | 3.5 | 0.00 | 0.04 | 0.00 | 74 | 1020.5 |
| 20260504033521 | 47 | 313 | 0.0 | 2.6 | 0.00 | 0.04 | 0.00 | 74 | 1020.5 |
| 20260504033021 | 47 | 9 | 0.0 | 2.6 | 0.00 | 0.04 | 0.00 | 74 | 1020.5 |
| 20260504032520 | 47 | 95 | 0.0 | 3.5 | 0.00 | 0.04 | 0.00 | 75 | 1020.5 |
| 20260504032021 | 46 | 90 | 1.7 | 3.5 | 0.00 | 0.04 | 0.00 | 75 | 1020.4 |
| 20260504031521 | 46 | 42 | 0.9 | 2.6 | 0.00 | 0.04 | 0.00 | 75 | 1020.4 |
| 20260504031020 | 46 | 355 | 0.9 | 2.6 | 0.00 | 0.04 | 0.00 | 75 | 1020.4 |
| 20260504030519 | 46 | 345 | 1.7 | 2.6 | 0.00 | 0.04 | 0.00 | 75 | 1020.3 |
| 20260504030019 | 46 | 319 | 0.0 | 2.6 | 0.00 | 0.06 | 0.00 | 75 | 1020.3 |
| 20260504025518 | 46 | 329 | 0.0 | 2.6 | 0.00 | 0.06 | 0.00 | 73 | 1020.1 |
| 20260504025017 | 47 | 333 | 0.0 | 4.3 | 0.00 | 0.06 | 0.00 | 72 | 1020.2 |
| 20260504024517 | 48 | 98 | 1.7 | 3.5 | 0.00 | 0.06 | 0.00 | 71 | 1020.2 |
| 20260504024016 | 47 | 84 | 0.9 | 2.6 | 0.00 | 0.06 | 0.00 | 72 | 1020.2 |
| 20260504023516 | 48 | 90 | 0.0 | 2.6 | 0.00 | 0.06 | 0.00 | 71 | 1020.1 |
| 20260504023016 | 48 | 78 | 1.7 | 3.5 | 0.00 | 0.06 | 0.00 | 71 | 1020.1 |
| 20260504022517 | 48 | 91 | 0.9 | 3.5 | 0.00 | 0.06 | 0.00 | 71 | 1020.1 |
| 20260504022016 | 48 | 113 | 1.7 | 3.5 | 0.00 | 0.06 | 0.00 | 72 | 1020.2 |
| 20260504021518 | 48 | 119 | 0.0 | 5.2 | 0.00 | 0.06 | 0.00 | 71 | 1020.2 |
| 20260504021014 | 48 | 118 | 2.6 | 6.1 | 0.00 | 0.06 | 0.00 | 72 | 1020.3 |
| 20260504020514 | 47 | 130 | 1.7 | 6.1 | 0.00 | 0.06 | 0.00 | 71 | 1020.3 |
| 20260504020014 | 48 | 52 | 2.6 | 7.0 | 0.00 | 0.06 | 0.00 | 70 | 1020.5 |
| 20260504015514 | 48 | 134 | 2.6 | 7.0 | 0.00 | 0.06 | 0.00 | 70 | 1020.4 |
| 20260504015014 | 47 | 30 | 2.6 | 7.0 | 0.00 | 0.06 | 0.00 | 71 | 1020.4 |
| 20260504014513 | 47 | 134 | 2.6 | 4.3 | 0.00 | 0.06 | 0.00 | 71 | 1020.3 |
| 20260504014012 | 47 | 54 | 2.6 | 4.3 | 0.00 | 0.06 | 0.00 | 70 | 1020.3 |
| 20260504013513 | 48 | 105 | 1.7 | 7.8 | 0.00 | 0.06 | 0.00 | 70 | 1020.4 |
| 20260504013016 | 48 | 92 | 3.5 | 7.8 | 0.00 | 0.06 | 0.00 | 69 | 1020.3 |
| 20260504012510 | 48 | 28 | 0.0 | 7.0 | 0.00 | 0.06 | 0.00 | 69 | 1020.4 |
| 20260504012009 | 48 | 347 | 1.7 | 4.3 | 0.00 | 0.06 | 0.00 | 68 | 1020.3 |
| 20260504011509 | 48 | 107 | 1.7 | 3.5 | 0.00 | 0.06 | 0.00 | 68 | 1020.3 |
| 20260504011010 | 49 | 98 | 0.0 | 2.6 | 0.00 | 0.06 | 0.00 | 67 | 1020.4 |
| 20260504010508 | 48 | 119 | 0.9 | 2.6 | 0.00 | 0.06 | 0.00 | 67 | 1020.3 |
| 20260504010009 | 48 | 97 | 1.7 | 3.5 | 0.00 | 0.06 | 0.00 | 68 | 1020.3 |
| 20260504005509 | 49 | 15 | 0.0 | 3.5 | 0.00 | 0.06 | 0.00 | 67 | 1020.3 |
| 20260504005008 | 48 | 119 | 0.0 | 2.6 | 0.00 | 0.06 | 0.00 | 68 | 1020.1 |
| 20260504004516 | 49 | 124 | 0.9 | 2.6 | 0.00 | 0.06 | 0.00 | 67 | 1020.2 |
| 20260504004007 | 49 | 119 | 0.0 | 2.6 | 0.00 | 0.06 | 0.00 | 66 | 1020.2 |
| 20260504003506 | 49 | 101 | 1.7 | 2.6 | 0.00 | 0.06 | 0.00 | 67 | 1020.2 |
| 20260504003006 | 49 | 296 | 0.9 | 3.5 | 0.00 | 0.06 | 0.00 | 66 | 1020.1 |
| 20260504002506 | 49 | 304 | 0.9 | 4.3 | 0.00 | 0.06 | 0.00 | 66 | 1020.1 |
| 20260504002006 | 49 | 71 | 0.9 | 7.0 | 0.00 | 0.06 | 0.00 | 66 | 1020.1 |
| 20260504001506 | 49 | 350 | 1.7 | 6.1 | 0.00 | 0.06 | 0.00 | 65 | 1020.0 |
| 20260504001007 | 49 | 212 | 0.0 | 4.3 | 0.00 | 0.06 | 0.00 | 65 | 1020.0 |
| 20260504000505 | 49 | 211 | 1.7 | 4.3 | 0.00 | 0.06 | 0.00 | 65 | 1020.0 |
| 20260504000005 | 49 | 89 | 0.9 | 2.6 | 0.00 | 0.06 | 0.00 | 66 | 1020.2 |
| 20260503235504 | 49 | 336 | 0.0 | 1.7 | 0.00 | 0.06 | 0.00 | 65 | 1020.2 |
| 20260503235004 | 49 | 337 | 0.0 | 7.0 | 0.00 | 0.06 | 0.00 | 65 | 1020.2 |
| 20260503234504 | 49 | 344 | 0.9 | 9.6 | 0.00 | 0.06 | 0.00 | 65 | 1020.2 |
| 20260503234005 | 49 | 254 | 5.2 | 9.6 | 0.00 | 0.06 | 0.00 | 66 | 1020.1 |
| 20260503233502 | 49 | 246 | 4.3 | 7.8 | 0.00 | 0.06 | 0.00 | 66 | 1020.2 |
| 20260503233001 | 49 | 261 | 1.7 | 3.5 | 0.00 | 0.06 | 0.00 | 67 | 1020.3 |
| 20260503232502 | 49 | 142 | 1.7 | 3.5 | 0.00 | 0.06 | 0.00 | 67 | 1020.2 |
| 20260503232001 | 49 | 49 | 0.9 | 2.6 | 0.00 | 0.06 | 0.00 | 68 | 1020.3 |
| 20260503231607 | 48 | 43 | 0.9 | 2.6 | 0.00 | 0.06 | 0.00 | 68 | 1020.3 |
| 20260503231100 | 48 | 42 | 0.9 | 2.6 | 0.00 | 0.06 | 0.00 | 69 | 1020.2 |
| 20260503230559 | 49 | 48 | 0.0 | 0.0 | 0.00 | 0.06 | 0.00 | 66 | 1020.2 |
| 20260503230116 | 49 | 47 | 0.0 | 0.9 | 0.00 | 0.06 | 0.00 | 66 | 1020.2 |
| 20260503225557 | 50 | 45 | 0.0 | 2.6 | 0.00 | 0.09 | 0.00 | 65 | 1020.2 |
| 20260503225056 | 50 | 27 | 0.9 | 2.6 | 0.00 | 0.09 | 0.00 | 64 | 1020.1 |
| 20260503224603 | 50 | 84 | 0.9 | 1.7 | 0.00 | 0.09 | 0.00 | 63 | 1020.2 |
| 20260503224055 | 50 | 84 | 0.0 | 2.6 | 0.00 | 0.09 | 0.00 | 63 | 1020.3 |
| 20260503223555 | 50 | 137 | 0.9 | 5.2 | 0.00 | 0.09 | 0.00 | 63 | 1020.3 |
| 20260503223054 | 50 | 130 | 1.7 | 5.2 | 0.00 | 0.09 | 0.00 | 63 | 1020.4 |
| 20260503222555 | 50 | 146 | 3.5 | 5.2 | 0.00 | 0.09 | 0.00 | 64 | 1020.3 |
| 20260503222053 | 50 | 326 | 0.9 | 3.5 | 0.00 | 0.09 | 0.00 | 63 | 1020.4 |
| 20260503221553 | 50 | 161 | 1.7 | 4.3 | 0.00 | 0.09 | 0.00 | 63 | 1020.3 |
| 20260503221054 | 50 | 161 | 0.0 | 7.0 | 0.00 | 0.09 | 0.00 | 64 | 1020.5 |
| 20260503220552 | 50 | 155 | 5.2 | 7.0 | 0.00 | 0.09 | 0.00 | 64 | 1020.4 |
| 20260503220052 | 50 | 47 | 0.9 | 3.5 | 0.00 | 0.09 | 0.00 | 64 | 1020.4 |
| 20260503215550 | 50 | 355 | 0.9 | 3.5 | 0.00 | 0.09 | 0.00 | 64 | 1020.4 |
| 20260503215052 | 50 | 360 | 0.9 | 7.0 | 0.00 | 0.09 | 0.00 | 64 | 1020.4 |
| 20260503214551 | 50 | 296 | 1.7 | 7.0 | 0.00 | 0.09 | 0.00 | 64 | 1020.3 |
| 20260503214050 | 50 | 333 | 3.5 | 8.7 | 0.00 | 0.09 | 0.00 | 64 | 1020.4 |
| 20260503213549 | 50 | 342 | 4.3 | 11.3 | 0.00 | 0.09 | 0.00 | 64 | 1020.3 |
| 20260503213054 | 50 | 327 | 7.8 | 11.3 | 0.00 | 0.09 | 0.00 | 63 | 1020.4 |
| 20260503212548 | 51 | 10 | 3.5 | 8.7 | 0.00 | 0.09 | 0.00 | 63 | 1020.4 |
| 20260503212047 | 51 | 338 | 6.1 | 8.7 | 0.00 | 0.09 | 0.00 | 63 | 1020.4 |
| 20260503211604 | 51 | 328 | 1.7 | 7.8 | 0.00 | 0.09 | 0.00 | 62 | 1020.3 |
| 20260503211145 | 51 | 360 | 0.9 | 5.2 | 0.00 | 0.09 | 0.00 | 62 | 1020.4 |
| 20260503210546 | 51 | 273 | 0.9 | 2.6 | 0.00 | 0.09 | 0.00 | 61 | 1020.3 |
| 20260503210044 | 51 | 299 | 0.0 | 4.3 | 0.00 | 0.09 | 0.09 | 62 | 1020.3 |
| 20260503205544 | 51 | 299 | 1.7 | 5.2 | 0.00 | 0.09 | 0.09 | 62 | 1020.3 |
| 20260503205043 | 51 | 349 | 2.6 | 7.0 | 0.00 | 0.09 | 0.09 | 62 | 1020.3 |
| 20260503204543 | 52 | 303 | 3.5 | 10.4 | 0.00 | 0.09 | 0.09 | 61 | 1020.3 |
| 20260503204043 | 52 | 294 | 7.0 | 10.4 | 0.00 | 0.09 | 0.09 | 61 | 1020.4 |
| 20260503203542 | 52 | 333 | 3.5 | 7.0 | 0.00 | 0.09 | 0.09 | 61 | 1020.3 |
| 20260503203047 | 52 | 326 | 3.5 | 7.0 | 0.00 | 0.09 | 0.09 | 60 | 1020.4 |